Juneau, WI

1:59 AM CST on January 19, 2017 (GMT -0600)
Dodge County

Weather History for KUNU - July, 2013

Change the Weather History Date:

Tuesday, July 16, 2013

  Actual Average Record
Temperature  
Mean Temperature 80 °F -  
Max Temperature 89 °F 78 °F 96 °F (2012)
Min Temperature 72 °F 60 °F 48 °F (2014)
Cooling Degree Days 16    
Growing Degree Days 30 (Base 50)    
Moisture  
Dew Point 62 °F    
Average Humidity 55    
Maximum Humidity 85    
Minimum Humidity 31    
Precipitation  
Precipitation 0.00 in - - ()
Sea Level Pressure  
Sea Level Pressure 30.28 in    
Wind  
Wind Speed 5 mph (SSW)    
Max Wind Speed 10 mph    
Max Gust Speed -    
Visibility 8 miles    
Events      
Averages and records for this station are not official NWS values.
T = Trace of Precipitation, MM = Missing Value Source: NWS Daily Summary

Daily Weather History Graph

Daily Weather History Graph

Search for Another Location

Airport or City:

Trip Planner

Search our weather history database for the weather conditions in past years. The results will help you decide how hot, cold, wet, or windy it might be!

Date:

Astronomy

Jul. 16, 2013 Rise Set
Actual Time 5:28 AM CDT 8:32 PM CDT
Civil Twilight 4:54 AM CDT 9:06 PM CDT
Nautical Twilight 4:10 AM CDT 9:50 PM CDT
Astronomical Twilight 3:18 AM CDT 10:42 PM CDT
Moon 2:09 PM CDT (7/16) 12:03 AM CDT (7/16)
Length of Visible Light 16h 12m
Length of Day
15h 03m
First Quarter, 56% of the Moon is Illuminated
Jul 16
First Quarter
Jul 22
Full
Jul 29
Last Quarter
Aug 6
New
Aug 14
First Quarter

Hourly Weather History & Observations

Time (CDT) Temp. Heat Index Dew Point Humidity Pressure Visibility Wind Dir Wind Speed Gust Speed Precip Events Conditions
12:15 AM 75.2 °F - 57.2 °F 53% 30.27 in 7.0 mi SSE 5.8 mph - N/A   Clear
12:35 AM 75.2 °F - 57.0 °F 53% 30.27 in 7.0 mi SSE 8.1 mph - N/A   Clear
12:55 AM 74.8 °F - 56.7 °F 53% 30.27 in 7.0 mi South 5.8 mph - N/A   Clear
1:15 AM 74.3 °F - 56.8 °F 54% 30.27 in 10.0 mi South 5.8 mph - N/A   Clear
1:35 AM 74.1 °F - 56.8 °F 55% 30.27 in 7.0 mi South 5.8 mph - N/A   Clear
1:55 AM 73.8 °F - 57.4 °F 56% 30.27 in 7.0 mi SSE 4.6 mph - N/A   Clear
2:15 AM 73.4 °F - 56.8 °F 56% 30.27 in 7.0 mi SSE 3.5 mph - N/A   Clear
2:35 AM 72.7 °F - 57.2 °F 58% 30.28 in 5.0 mi SE 3.5 mph - N/A   Haze
2:55 AM 72.7 °F - 57.2 °F 58% 30.28 in 5.0 mi Calm Calm - N/A   Haze
3:15 AM 72.7 °F - 57.2 °F 58% 30.28 in 5.0 mi Calm Calm - N/A   Haze
3:35 AM 72.9 °F - 57.2 °F 58% 30.28 in 4.0 mi SE 3.5 mph - N/A   Haze
3:55 AM 72.7 °F - 57.2 °F 58% 30.28 in 4.0 mi Calm Calm - N/A   Haze
4:15 AM 72.5 °F - 57.2 °F 59% 30.29 in 4.0 mi ESE 4.6 mph - N/A   Haze
4:35 AM 72.0 °F - 57.4 °F 60% 30.29 in 3.0 mi SE 4.6 mph - N/A   Haze
4:55 AM 72.0 °F - 57.6 °F 60% 30.29 in 3.0 mi SE 4.6 mph - N/A   Haze
5:15 AM 72.1 °F - 57.7 °F 60% 30.28 in 4.0 mi SE 5.8 mph - N/A   Haze
5:35 AM 72.5 °F - 58.1 °F 60% 30.29 in 4.0 mi SE 4.6 mph - N/A   Haze
5:55 AM 72.7 °F - 58.1 °F 60% 30.29 in 4.0 mi SE 3.5 mph - N/A   Haze
6:15 AM 72.9 °F - 58.1 °F 60% 30.29 in 4.0 mi Calm Calm - N/A   Haze
6:35 AM 73.2 °F - 58.3 °F 59% 30.30 in 4.0 mi SE 4.6 mph - N/A   Haze
6:55 AM 73.4 °F - 58.5 °F 59% 30.30 in 4.0 mi ESE 3.5 mph - N/A   Haze
7:15 AM 74.7 °F - 58.5 °F 57% 30.31 in 4.0 mi SE 3.5 mph - N/A   Haze
7:35 AM 76.3 °F - 58.8 °F 55% 30.31 in 5.0 mi Calm Calm - N/A   Haze
7:55 AM 77.2 °F - 59.0 °F 53% 30.31 in 7.0 mi South 4.6 mph - N/A   Clear
8:15 AM 78.8 °F - 58.8 °F 50% 30.31 in 10.0 mi South 5.8 mph - N/A   Clear
8:35 AM 79.2 °F - 59.0 °F 50% 30.31 in 10.0 mi SSW 5.8 mph - N/A   Clear
8:55 AM 79.7 °F - 59.0 °F 49% 30.31 in 10.0 mi SSW 5.8 mph - N/A   Clear
9:15 AM 81.0 °F 81.3 °F 59.2 °F 47% 30.31 in 10.0 mi SSW 5.8 mph - N/A   Clear
9:35 AM 81.9 °F 82.2 °F 59.5 °F 47% 30.31 in 10.0 mi SW 5.8 mph - N/A   Clear
9:55 AM 82.4 °F 82.3 °F 58.6 °F 44% 30.31 in 10.0 mi SW 8.1 mph - N/A   Scattered Clouds
10:15 AM 83.1 °F 82.7 °F 57.9 °F 42% 30.31 in 10.0 mi WSW 6.9 mph - N/A   Scattered Clouds
10:55 AM 84.2 °F 83.5 °F 57.7 °F 40% 30.30 in 10.0 mi WSW 3.5 mph - N/A   Scattered Clouds
11:15 AM 85.1 °F 84.6 °F 58.8 °F 41% 30.30 in 10.0 mi WSW 5.8 mph - N/A   Scattered Clouds
11:35 AM 85.8 °F 84.7 °F 57.0 °F 37% 30.30 in 10.0 mi WSW 6.9 mph - N/A   Scattered Clouds
11:55 AM 86.7 °F 85.6 °F 57.4 °F 37% 30.30 in 10.0 mi SW 10.4 mph - N/A   Scattered Clouds
12:15 PM 84.2 °F 83.3 °F 57.0 °F 39% 30.30 in 10.0 mi SW 5.8 mph - N/A   Scattered Clouds
12:35 PM 87.3 °F 85.1 °F 53.2 °F 31% 30.29 in 10.0 mi WSW 6.9 mph - N/A   Scattered Clouds
12:55 PM 86.9 °F 85.6 °F 57.0 °F 36% 30.29 in 10.0 mi SW 8.1 mph - N/A   Scattered Clouds
1:15 PM 85.3 °F 84.1 °F 56.5 °F 37% 30.29 in 10.0 mi SW 5.8 mph - N/A   Scattered Clouds
1:35 PM 86.9 °F 85.6 °F 57.0 °F 36% 30.28 in 10.0 mi WSW 6.9 mph - N/A   Mostly Cloudy
1:55 PM 86.0 °F 84.5 °F 55.6 °F 35% 30.28 in 10.0 mi SW 6.9 mph - N/A   Mostly Cloudy
2:15 PM 83.8 °F 83.6 °F 58.8 °F 43% 30.28 in 10.0 mi WSW 8.1 mph - N/A   Mostly Cloudy
2:35 PM 86.0 °F 85.0 °F 57.9 °F 38% 30.28 in 10.0 mi WSW 8.1 mph - N/A   Mostly Cloudy
3:55 PM 89.2 °F 92.0 °F 66.4 °F 47% 30.27 in 10.0 mi SW 8.1 mph - N/A   Scattered Clouds
4:15 PM 87.1 °F 90.2 °F 67.3 °F 52% 30.26 in 10.0 mi SSW 8.1 mph - N/A   Mostly Cloudy
4:35 PM 88.2 °F 90.9 °F 66.6 °F 49% 30.26 in 10.0 mi SW 10.4 mph - N/A   Mostly Cloudy
4:55 PM 87.8 °F 91.1 °F 67.6 °F 51% 30.26 in 10.0 mi SW 9.2 mph - N/A   Scattered Clouds
5:15 PM 88.3 °F 90.9 °F 66.4 °F 48% 30.25 in 10.0 mi SSW 9.2 mph - N/A   Scattered Clouds
5:35 PM 89.2 °F 92.4 °F 67.3 °F 48% 30.26 in 10.0 mi SSW 10.4 mph - N/A   Mostly Cloudy
5:55 PM 88.3 °F 91.6 °F 67.3 °F 50% 30.26 in 10.0 mi WSW 6.9 mph - N/A   Scattered Clouds
6:15 PM 88.5 °F 91.2 °F 66.6 °F 48% 30.26 in 10.0 mi SW 8.1 mph - N/A   Scattered Clouds
6:35 PM 87.8 °F 91.4 °F 68.2 °F 52% 30.26 in 10.0 mi SSW 9.2 mph - N/A   Scattered Clouds
6:55 PM 87.3 °F 90.9 °F 68.2 °F 53% 30.25 in 10.0 mi SSW 8.1 mph - N/A   Clear
7:15 PM 86.9 °F 91.0 °F 68.7 °F 55% 30.25 in 10.0 mi SSW 5.8 mph - N/A   Clear
7:35 PM 85.8 °F 84.7 °F 56.5 °F 37% 30.25 in 10.0 mi SSW 6.9 mph - N/A   Clear
7:55 PM 84.7 °F 89.4 °F 70.3 °F 62% 30.25 in 10.0 mi SSW 6.9 mph - N/A   Clear
8:15 PM 83.7 °F 88.3 °F 70.9 °F 65% 30.25 in 10.0 mi SSW 5.8 mph - N/A   Clear
8:35 PM 82.4 °F 87.4 °F 72.0 °F 71% 30.25 in 10.0 mi SSW 5.8 mph - N/A   Clear
8:55 PM 81.9 °F 86.6 °F 72.0 °F 72% 30.26 in 10.0 mi SSW 4.6 mph - N/A   Clear
9:15 PM 81.5 °F 86.3 °F 72.3 °F 74% 30.26 in 10.0 mi SSW 5.8 mph - N/A   Clear
9:35 PM 80.2 °F 84.0 °F 71.6 °F 75% 30.27 in 10.0 mi South 5.8 mph - N/A   Clear
9:55 PM 80.6 °F 84.2 °F 70.9 °F 72% 30.27 in 10.0 mi SSW 5.8 mph - N/A   Clear
10:15 PM 79.2 °F - 71.8 °F 78% 30.28 in 10.0 mi SSW 4.6 mph - N/A   Clear
10:35 PM 78.8 °F - 71.8 °F 79% 30.28 in 10.0 mi South 4.6 mph - N/A   Clear
10:55 PM 78.6 °F - 72.1 °F 80% 30.28 in 10.0 mi SSW 5.8 mph - N/A   Clear
11:15 PM 77.9 °F - 72.1 °F 82% 30.28 in 10.0 mi SSW 6.9 mph - N/A   Clear
11:35 PM 77.4 °F - 72.5 °F 85% 30.29 in 10.0 mi SW 5.8 mph - N/A   Clear
11:55 PM 77.2 °F - 72.5 °F 85% 30.29 in 10.0 mi SSW 5.8 mph - N/A   Clear